Home   Weather   Grevenbroich   Past weeks
Flag for Germany

Past Weather in Grevenbroich, North Rhine-Westphalia, Germany — Yesterday and Last 2 Weeks

Now
73 °F

Passing clouds.


Feels Like: 77 °F
Forecast: 66 / 53 °F
Wind: 8 mph from Southeast

Location: Monchengladbach Airport

Current Time: Sep 22, 2019 at 12:46:12 pm

Latest Report: Sep 22, 2019 at 12:20 pm


Visibility: N/A

Pressure: 29.80 "Hg

Humidity: 44%

Dew Point: 50 °F

Location of GrevenbroichLocation

Past Weather in Grevenbroich — Graph

°F

Grevenbroich Temperature Yesterday

Maximum temperature yesterday: 77 °F (at 3:20 pm)
Minimum temperature yesterday: 45 °F (at 1:20 am)
Average temperature yesterday: 59 °F

High & Low Weather Summary for the Past Weeks

 TemperatureHumidityPressure
High77 °F (Sep 15, 3:50 pm)100% (Sep 9, 5:20 am)30.54 "Hg (Sep 9, 5:20 am)
Low36 °F (Sep 20, 7:20 am)26% (Sep 21, 3:20 pm)29.80 "Hg (Sep 22, 10:50 am)
Average58 °F73%30.21 "Hg
* Reported Sep 7 11:20 am — Sep 22 11:20 am, Grevenbroich. Weather by CustomWeather, © 2019

Note: Actual official high and low records may vary slightly from our data, if they occured in-between our weather recording intervals... More about our weather records

Advertising

Grevenbroich Weather History for the Previous 24 Hours

Scroll right to see more
 ConditionsComfort  
Time TempWeatherWind HumidityBarometerVisibility
11:20 am
Sun, Sep 22
70 °FClear.8 mph46%29.80 "Hg10 mi
10:50 am68 °FPassing clouds.9 mph46%29.80 "HgN/A
10:20 am66 °FPassing clouds.9 mph49%29.83 "HgN/A
9:50 am64 °FPassing clouds.8 mph52%29.83 "HgN/A
9:20 am63 °FPassing clouds.8 mph52%29.83 "HgN/A
8:50 am61 °FPassing clouds.8 mph55%29.83 "HgN/A
8:20 am59 °FPassing clouds.8 mph59%29.83 "HgN/A
7:50 am57 °FPassing clouds.7 mph59%29.83 "HgN/A
7:20 am54 °FSunny.7 mph67%29.83 "HgN/A
6:50 am55 °FSunny.6 mph63%29.83 "HgN/A
6:20 am54 °FSunny.7 mph63%29.83 "HgN/A
5:50 am57 °FSunny.7 mph59%29.83 "HgN/A
5:20 am54 °FSunny.6 mph67%29.86 "HgN/A
4:50 am57 °FSunny.6 mph59%29.86 "HgN/A
4:20 am57 °FSunny.6 mph59%29.86 "HgN/A
3:50 am54 °FSunny.5 mph63%29.86 "HgN/A
3:20 am54 °FSunny.6 mph67%29.89 "HgN/A
2:50 am54 °FSunny.5 mph63%29.89 "HgN/A
2:20 am54 °FSunny.5 mph67%29.89 "HgN/A
1:50 am54 °FSunny.5 mph63%29.89 "HgN/A
1:20 am59 °FSunny.5 mph55%29.89 "HgN/A
12:50 am57 °FSunny.5 mph59%29.92 "HgN/A
12:20 am55 °FSunny.3 mph63%29.92 "HgN/A
11:50 pm
Sat, Sep 21
57 °FSunny.5 mph59%29.92 "HgN/A
11:20 pm59 °FSunny.5 mph55%29.92 "HgN/A
10:50 pm61 °FSunny.6 mph52%29.95 "HgN/A
10:20 pm59 °FClear.7 mph55%29.95 "HgN/A
9:50 pm59 °FClear.5 mph55%29.95 "HgN/A
9:20 pm59 °FClear.6 mph55%29.95 "HgN/A
8:50 pm59 °FClear.7 mph51%29.95 "HgN/A
8:20 pm61 °FClear.5 mph48%29.95 "Hg10 mi
7:50 pm66 °FClear.6 mph37%29.95 "Hg10 mi
7:20 pm72 °FClear.7 mph31%29.95 "Hg10 mi
6:50 pm73 °FClear.8 mph29%29.95 "Hg10 mi
6:20 pm75 °FPassing clouds.10 mph27%29.98 "HgN/A
5:50 pm75 °FPassing clouds.10 mph27%29.98 "HgN/A
5:20 pm75 °FPassing clouds.12 mph29%29.98 "HgN/A
4:50 pm77 °FClear.10 mph28%29.98 "Hg10 mi
4:20 pm77 °FPassing clouds.10 mph26%30.01 "HgN/A
3:50 pm75 °FPassing clouds.12 mph27%30.01 "HgN/A
3:20 pm77 °FPassing clouds.13 mph26%30.01 "HgN/A
2:50 pm75 °FClear.13 mph27%30.04 "Hg10 mi
2:20 pm73 °FClear.10 mph29%30.04 "Hg10 mi
1:50 pm73 °FPassing clouds.12 mph29%30.07 "HgN/A
1:20 pm72 °FClear.15 mph29%30.07 "Hg10 mi
12:50 pm70 °FPassing clouds.14 mph33%30.09 "HgN/A
12:20 pm68 °FClear.13 mph33%30.09 "Hg10 mi
Weather by CustomWeather, © 2019

See weather overview